"Sample Date","Sample Time","Sample Value","Units","Flow Rate","Number Channels","Micron Size 0","Counts/Channel 0","Micron Size 1","Counts/Channel 1","Micron Size 2","Counts/Channel 2","Micron Size 3","Counts/Channel 3","Micron Size 4","Counts/Channel 4","Micron Size 5","Counts/Channel 5","Micron Size 6","Counts/Channel 6","Micron Size 7","Counts/Channel 7","Micron Size 8","Counts/Channel 8","Micron Size 9","Counts/Channel 9","Micron Size 10","Counts/Channel 10","Micron Size 11","Counts/Channel 11","Micron Size 12","Counts/Channel 12","Micron Size 13","Counts/Channel 13","Micron Size 14","Counts/Channel 14","Micron Size 15","Counts/Channel 15","Micron Size 16","Counts/Channel 16","Micron Size 17","Counts/Channel 17","Micron Size 18","Counts/Channel 18","Micron Size 19","Counts/Channel 19","Micron Size 20","Counts/Channel 20","Micron Size 21","Counts/Channel 21","Micron Size 22","Counts/Channel 22","Micron Size 23","Counts/Channel 23","Micron Size 24","Counts/Channel 24","Micron Size 25","Counts/Channel 25","Micron Size 26","Counts/Channel 26","Micron Size 27","Counts/Channel 27","Micron Size 28","Counts/Channel 28","Micron Size 29","Counts/Channel 29","Micron Size 30","Counts/Channel 30","Micron Size 31","Counts/Channel 31"
"05/05/08","19:00:01",849.000,"cc",28090.154,6,0.100,677.000,0.200,157.000,0.300,12.000,0.500,3.000,1.000,0,5.000,0
"05/05/08","19:00:07",852.000,"cc",28437.262,6,0.100,679.000,0.200,161.000,0.300,12.000,0.500,0,1.000,0,5.000,0
"05/05/08","19:00:13",849.000,"cc",28837.084,6,0.100,672.000,0.200,159.000,0.300,10.000,0.500,5.000,1.000,3.000,5.000,0
"05/05/08","19:00:19",920.000,"cc",28875.234,6,0.100,731.000,0.200,174.000,0.300,12.000,0.500,3.000,1.000,0,5.000,0
"05/05/08","19:00:25",891.000,"cc",28913.213,6,0.100,708.000,0.200,174.000,0.300,6.000,0.500,3.000,1.000,0,5.000,0
"05/05/08","19:00:31",856.000,"cc",28954.742,6,0.100,640.000,0.200,199.000,0.300,16.000,0.500,1.000,1.000,0,5.000,0
"05/05/08","19:00:37",842.000,"cc",28941.289,6,0.100,655.000,0.200,178.000,0.300,7.000,0.500,2.000,1.000,0,5.000,0
"05/05/08","19:00:43",922.000,"cc",28916.686,6,0.100,740.000,0.200,163.000,0.300,18.000,0.500,1.000,1.000,0,5.000,0
"05/05/08","19:00:49",891.000,"cc",28867.574,6,0.100,734.000,0.200,146.000,0.300,11.000,0.500,0,1.000,0,5.000,0
"05/05/08","19:00:55",883.000,"cc",28882.197,6,0.100,705.000,0.200,162.000,0.300,13.000,0.500,2.000,1.000,1.000,5.000,0
"05/05/08","19:01:01",886.000,"cc",28915.789,6,0.100,691.000,0.200,175.000,0.300,20.000,0.500,0,1.000,0,5.000,0
"05/05/08","19:01:07",856.000,"cc",28904.996,6,0.100,664.000,0.200,176.000,0.300,14.000,0.500,2.000,1.000,0,5.000,0
"05/05/08","19:01:13",858.000,"cc",28862.742,6,0.100,670.000,0.200,173.000,0.300,10.000,0.500,4.000,1.000,1.000,5.000,0
"05/05/08","19:01:19",871.000,"cc",28909.488,6,0.100,691.000,0.200,170.000,0.300,9.000,0.500,1.000,1.000,0,5.000,0
"05/05/08","19:01:25",888.000,"cc",28915.492,6,0.100,686.000,0.200,188.000,0.300,11.000,0.500,0,1.000,3.000,5.000,0
"05/05/08","19:01:31",821.000,"cc",28864.834,6,0.100,650.000,0.200,162.000,0.300,9.000,0.500,0,1.000,0,5.000,0
"05/05/08","19:01:37",884.000,"cc",28858.650,6,0.100,694.000,0.200,179.000,0.300,8.000,0.500,2.000,1.000,1.000,5.000,0
"05/05/08","19:01:43",867.000,"cc",28931.082,6,0.100,698.000,0.200,159.000,0.300,8.000,0.500,2.000,1.000,0,5.000,0
"05/05/08","19:01:49",885.000,"cc",28907.168,6,0.100,699.000,0.200,170.000,0.300,14.000,0.500,2.000,1.000,0,5.000,0
"05/05/08","19:01:55",847.000,"cc",28943.709,6,0.100,654.000,0.200,180.000,0.300,11.000,0.500,2.000,1.000,0,5.000,0
"05/05/08","19:02:01",881.000,"cc",28956.844,6,0.100,694.000,0.200,170.000,0.300,13.000,0.500,4.000,1.000,0,5.000,0
"05/05/08","19:02:07",889.000,"cc",28898.457,6,0.100,681.000,0.200,193.000,0.300,13.000,0.500,1.000,1.000,1.000,5.000,0
"05/05/08","19:02:13",898.000,"cc",28789.190,6,0.100,685.000,0.200,194.000,0.300,17.000,0.500,2.000,1.000,0,5.000,0
"05/05/08","19:02:19",937.000,"cc",28773.402,6,0.100,741.000,0.200,185.000,0.300,7.000,0.500,4.000,1.000,0,5.000,0
"05/05/08","19:02:25",830.000,"cc",28509.516,6,0.100,649.000,0.200,168.000,0.300,8.000,0.500,4.000,1.000,1.000,5.000,0
"05/05/08","19:02:31",856.000,"cc",28329.522,6,0.100,680.000,0.200,162.000,0.300,11.000,0.500,2.000,1.000,1.000,5.000,0
"05/05/08","19:02:37",798.000,"cc",28268.037,6,0.100,607.000,0.200,181.000,0.300,8.000,0.500,1.000,1.000,1.000,5.000,0
"05/05/08","19:02:43",895.000,"cc",28384.686,6,0.100,718.000,0.200,165.000,0.300,9.000,0.500,2.000,1.000,1.000,5.000,0
"05/05/08","19:02:49",854.000,"cc",28345.873,6,0.100,676.000,0.200,166.000,0.300,10.000,0.500,2.000,1.000,0,5.000,0
"05/05/08","19:02:55",882.000,"cc",28294.115,6,0.100,708.000,0.200,159.000,0.300,14.000,0.500,1.000,1.000,0,5.000,0
"05/05/08","19:03:01",865.000,"cc",28326.033,6,0.100,684.000,0.200,167.000,0.300,12.000,0.500,2.000,1.000,0,5.000,0
"05/05/08","19:03:07",849.000,"cc",28329.918,6,0.100,676.000,0.200,162.000,0.300,9.000,0.500,2.000,1.000,0,5.000,0
"05/05/08","19:03:13",880.000,"cc",28379.525,6,0.100,678.000,0.200,186.000,0.300,14.000,0.500,2.000,1.000,0,5.000,0
"05/05/08","19:03:19",863.000,"cc",28373.740,6,0.100,700.000,0.200,151.000,0.300,10.000,0.500,2.000,1.000,0,5.000,0
"05/05/08","19:03:25",832.000,"cc",28304.422,6,0.100,635.000,0.200,185.000,0.300,9.000,0.500,3.000,1.000,0,5.000,0
"05/05/08","19:03:31",799.000,"cc",28358.201,6,0.100,613.000,0.200,173.000,0.300,11.000,0.500,2.000,1.000,0,5.000,0
"05/05/08","19:03:37",859.000,"cc",28316.600,6,0.100,634.000,0.200,207.000,0.300,15.000,0.500,3.000,1.000,0,5.000,0
"05/05/08","19:03:43",769.000,"cc",28335.229,6,0.100,585.000,0.200,172.000,0.300,9.000,0.500,3.000,1.000,0,5.000,0
"05/05/08","19:03:49",854.000,"cc",28314.613,6,0.100,636.000,0.200,195.000,0.300,18.000,0.500,5.000,1.000,0,5.000,0
"05/05/08","19:03:55",891.000,"cc",28316.463,6,0.100,687.000,0.200,184.000,0.300,18.000,0.500,2.000,1.000,0,5.000,0
"05/05/08","19:04:01",815.000,"cc",28307.484,6,0.100,620.000,0.200,187.000,0.300,7.000,0.500,1.000,1.000,0,5.000,0
"05/05/08","19:04:07",806.000,"cc",28292.066,6,0.100,594.000,0.200,198.000,0.300,10.000,0.500,4.000,1.000,0,5.000,0
"05/05/08","19:04:13",726.000,"cc",28338.316,6,0.100,560.000,0.200,154.000,0.300,7.000,0.500,4.000,1.000,1.000,5.000,0
"05/05/08","19:04:19",815.000,"cc",28319.676,6,0.100,625.000,0.200,178.000,0.300,8.000,0.500,4.000,1.000,0,5.000,0
"05/05/08","19:04:25",747.000,"cc",28275.492,6,0.100,554.000,0.200,188.000,0.300,4.000,0.500,1.000,1.000,0,5.000,0
"05/05/08","19:04:31",819.000,"cc",28324.453,6,0.100,613.000,0.200,188.000,0.300,15.000,0.500,3.000,1.000,0,5.000,0
"05/05/08","19:04:37",789.000,"cc",28262.652,6,0.100,612.000,0.200,169.000,0.300,7.000,0.500,1.000,1.000,0,5.000,0
"05/05/08","19:04:43",844.000,"cc",28246.537,6,0.100,633.000,0.200,200.000,0.300,7.000,0.500,3.000,1.000,1.000,5.000,0
"05/05/08","19:04:49",829.000,"cc",28352.768,6,0.100,636.000,0.200,176.000,0.300,12.000,0.500,2.000,1.000,3.000,5.000,0
"05/05/08","19:04:55",864.000,"cc",28383.432,6,0.100,664.000,0.200,183.000,0.300,14.000,0.500,2.000,1.000,1.000,5.000,0
"05/05/08","19:05:01",810.000,"cc",28248.783,6,0.100,603.000,0.200,196.000,0.300,8.000,0.500,2.000,1.000,1.000,5.000,0
"05/05/08","19:05:07",838.000,"cc",28349.186,6,0.100,631.000,0.200,187.000,0.300,14.000,0.500,2.000,1.000,4.000,5.000,0
"05/05/08","19:05:13",854.000,"cc",28394.893,6,0.100,645.000,0.200,193.000,0.300,13.000,0.500,2.000,1.000,1.000,5.000,0
"05/05/08","19:05:19",805.000,"cc",28296.121,6,0.100,603.000,0.200,182.000,0.300,15.000,0.500,4.000,1.000,1.000,5.000,0
"05/05/08","19:05:25",772.000,"cc",28253.816,6,0.100,560.000,0.200,191.000,0.300,16.000,0.500,4.000,1.000,1.000,5.000,0
"05/05/08","19:05:31",830.000,"cc",28312.781,6,0.100,648.000,0.200,169.000,0.300,11.000,0.500,1.000,1.000,1.000,5.000,0
"05/05/08","19:05:37",787.000,"cc",28315.527,6,0.100,600.000,0.200,169.000,0.300,10.000,0.500,7.000,1.000,1.000,5.000,0
"05/05/08","19:05:43",827.000,"cc",28322.830,6,0.100,604.000,0.200,203.000,0.300,18.000,0.500,1.000,1.000,1.000,5.000,0
"05/05/08","19:05:49",806.000,"cc",28391.315,6,0.100,605.000,0.200,185.000,0.300,12.000,0.500,4.000,1.000,0,5.000,0
"05/05/08","19:05:55",4302.000,"cc",27769.119,6,0.100,3575.000,0.200,422.000,0.300,238.000,0.500,39.000,1.000,12.000,5.000,16.000
"05/05/08","19:06:01",1097.000,"cc",26908.977,6,0.100,826.000,0.200,224.000,0.300,27.000,0.500,16.000,1.000,4.000,5.000,0
"05/05/08","19:06:07",886.000,"cc",27260.270,6,0.100,664.000,0.200,207.000,0.300,14.000,0.500,1.000,1.000,0,5.000,0
"05/05/08","19:06:13",925.000,"cc",27213.209,6,0.100,687.000,0.200,219.000,0.300,16.000,0.500,3.000,1.000,0,5.000,0
"05/05/08","19:06:19",772.000,"cc",27161.750,6,0.100,562.000,0.200,195.000,0.300,12.000,0.500,2.000,1.000,1.000,5.000,0
"05/05/08","19:06:25",843.000,"cc",27189.348,6,0.100,616.000,0.200,210.000,0.300,13.000,0.500,4.000,1.000,0,5.000,0
"05/05/08","19:06:31",837.000,"cc",27126.506,6,0.100,649.000,0.200,176.000,0.300,10.000,0.500,2.000,1.000,0,5.000,0
"05/05/08","19:06:37",821.000,"cc",27046.297,6,0.100,607.000,0.200,197.000,0.300,16.000,0.500,1.000,1.000,0,5.000,0
"05/05/08","19:06:43",880.000,"cc",26970.914,6,0.100,670.000,0.200,195.000,0.300,11.000,0.500,4.000,1.000,0,5.000,0
"05/05/08","19:06:49",860.000,"cc",27051.873,6,0.100,651.000,0.200,194.000,0.300,10.000,0.500,4.000,1.000,1.000,5.000,0
"05/05/08","19:06:55",819.000,"cc",27013.156,6,0.100,645.000,0.200,159.000,0.300,12.000,0.500,2.000,1.000,1.000,5.000,0
"05/05/08","19:07:01",849.000,"cc",27046.307,6,0.100,635.000,0.200,194.000,0.300,18.000,0.500,2.000,1.000,0,5.000,0
"05/05/08","19:07:07",879.000,"cc",27058.459,6,0.100,669.000,0.200,193.000,0.300,13.000,0.500,4.000,1.000,0,5.000,0
"05/05/08","19:07:13",785.000,"cc",27027.592,6,0.100,609.000,0.200,166.000,0.300,7.000,0.500,3.000,1.000,0,5.000,0
"05/05/08","19:07:17",542.000,"cc",24093.621,6,0.100,422.000,0.200,114.000,0.300,5.000,0.500,1.000,1.000,0,5.000,0
"05/05/08","19:08:25",4033.000,"cc",27175.047,6,0.100,1759.000,0.200,672.000,0.300,312.000,0.500,403.000,1.000,880.000,5.000,7.000
"05/05/08","19:08:31",5129.000,"cc",27347.918,6,0.100,2432.000,0.200,792.000,0.300,407.000,0.500,483.000,1.000,1002.000,5.000,13.000
"05/05/08","19:08:37",4428.000,"cc",27112.172,6,0.100,1706.000,0.200,690.000,0.300,374.000,0.500,466.000,1.000,1179.000,5.000,13.000
"05/05/08","19:08:43",3910.000,"cc",27172.156,6,0.100,1642.000,0.200,566.000,0.300,282.000,0.500,389.000,1.000,1020.000,5.000,11.000
"05/05/08","19:08:49",5399.000,"cc",27312.172,6,0.100,1951.000,0.200,759.000,0.300,529.000,0.500,649.000,1.000,1490.000,5.000,21.000
"05/05/08","19:08:55",4777.000,"cc",27569.041,6,0.100,1776.000,0.200,661.000,0.300,414.000,0.500,525.000,1.000,1381.000,5.000,20.000
"05/05/08","19:09:01",3586.000,"cc",27974.441,6,0.100,1607.000,0.200,546.000,0.300,293.000,0.500,335.000,1.000,793.000,5.000,12.000
"05/05/08","19:09:07",4646.000,"cc",28407.645,6,0.100,1899.000,0.200,682.000,0.300,404.000,0.500,479.000,1.000,1165.000,5.000,17.000
"05/05/08","19:09:13",4108.000,"cc",28787.621,6,0.100,1738.000,0.200,635.000,0.300,320.000,0.500,427.000,1.000,975.000,5.000,13.000
"05/05/08","19:09:19",2343.000,"cc",28915.584,6,0.100,1184.000,0.200,370.000,0.300,164.000,0.500,151.000,1.000,469.000,5.000,5.000
"05/05/08","19:09:25",1503.000,"cc",28923.695,6,0.100,890.000,0.200,258.000,0.300,76.000,0.500,77.000,1.000,200.000,5.000,2.000
"05/05/08","19:09:31",1360.000,"cc",28814.576,6,0.100,871.000,0.200,252.000,0.300,66.000,0.500,66.000,1.000,104.000,5.000,1.000
"05/05/08","19:09:37",973.000,"cc",28935.293,6,0.100,752.000,0.200,210.000,0.300,8.000,0.500,2.000,1.000,1.000,5.000,0
"05/05/08","19:09:43",1510.000,"cc",28882.566,6,0.100,896.000,0.200,252.000,0.300,87.000,0.500,86.000,1.000,187.000,5.000,2.000
"05/05/08","19:09:49",912.000,"cc",28910.836,6,0.100,707.000,0.200,177.000,0.300,15.000,0.500,7.000,1.000,6.000,5.000,0
"05/05/08","19:09:55",990.000,"cc",28988.434,6,0.100,722.000,0.200,204.000,0.300,27.000,0.500,14.000,1.000,23.000,5.000,0
"05/05/08","19:10:01",914.000,"cc",28861.285,6,0.100,689.000,0.200,202.000,0.300,16.000,0.500,4.000,1.000,3.000,5.000,0
"05/05/08","19:10:07",886.000,"cc",28854.647,6,0.100,686.000,0.200,180.000,0.300,16.000,0.500,3.000,1.000,1.000,5.000,0
"05/05/08","19:10:13",814.000,"cc",28927.156,6,0.100,628.000,0.200,173.000,0.300,12.000,0.500,1.000,1.000,0,5.000,0
"05/05/08","19:10:19",849.000,"cc",28904.145,6,0.100,649.000,0.200,186.000,0.300,12.000,0.500,2.000,1.000,0,5.000,0
"05/05/08","19:10:25",5946.000,"cc",28629.137,6,0.100,4099.000,0.200,1218.000,0.300,189.000,0.500,165.000,1.000,136.000,5.000,139.000
"05/05/08","19:10:31",2003.000,"cc",26669.709,6,0.100,1406.000,0.200,418.000,0.300,108.000,0.500,50.000,1.000,19.000,5.000,2.000
"05/05/08","19:10:37",6273.000,"cc",26246.500,6,0.100,4562.000,0.200,1106.000,0.300,279.000,0.500,186.000,1.000,70.000,5.000,70.000
"05/05/08","19:10:43",1026.000,"cc",26874.674,6,0.100,764.000,0.200,224.000,0.300,23.000,0.500,13.000,1.000,2.000,5.000,0
"05/05/08","19:10:49",859.000,"cc",27254.422,6,0.100,643.000,0.200,195.000,0.300,16.000,0.500,5.000,1.000,0,5.000,0
"05/05/08","19:10:55",874.000,"cc",27324.049,6,0.100,661.000,0.200,189.000,0.300,18.000,0.500,5.000,1.000,0,5.000,1.000
"05/05/08","19:11:01",833.000,"cc",27289.623,6,0.100,634.000,0.200,182.000,0.300,12.000,0.500,3.000,1.000,2.000,5.000,0
"05/05/08","19:11:07",835.000,"cc",27312.986,6,0.100,629.000,0.200,192.000,0.300,10.000,0.500,4.000,1.000,0,5.000,0
"05/05/08","19:11:13",845.000,"cc",27333.723,6,0.100,640.000,0.200,187.000,0.300,15.000,0.500,3.000,1.000,0,5.000,0
"05/05/08","19:11:19",800.000,"cc",27396.119,6,0.100,618.000,0.200,162.000,0.300,19.000,0.500,0,1.000,1.000,5.000,0
"05/05/08","19:11:25",790.000,"cc",27463.236,6,0.100,581.000,0.200,194.000,0.300,8.000,0.500,6.000,1.000,0,5.000,1.000
"05/05/08","19:11:31",810.000,"cc",27503.561,6,0.100,598.000,0.200,198.000,0.300,12.000,0.500,2.000,1.000,0,5.000,0
"05/05/08","19:11:37",853.000,"cc",27697.475,6,0.100,666.000,0.200,175.000,0.300,10.000,0.500,0,1.000,2.000,5.000,0
"05/05/08","19:11:43",782.000,"cc",27916.012,6,0.100,584.000,0.200,182.000,0.300,11.000,0.500,5.000,1.000,0,5.000,0
"05/05/08","19:11:49",807.000,"cc",28344.000,6,0.100,600.000,0.200,192.000,0.300,12.000,0.500,1.000,1.000,2.000,5.000,0
"05/05/08","19:11:55",785.000,"cc",28851.979,6,0.100,593.000,0.200,178.000,0.300,11.000,0.500,3.000,1.000,0,5.000,0
"05/05/08","19:12:01",787.000,"cc",28950.326,6,0.100,599.000,0.200,174.000,0.300,13.000,0.500,1.000,1.000,0,5.000,0
"05/05/08","19:12:07",785.000,"cc",29016.141,6,0.100,599.000,0.200,174.000,0.300,10.000,0.500,2.000,1.000,0,5.000,0
"05/05/08","19:12:13",783.000,"cc",29013.027,6,0.100,587.000,0.200,181.000,0.300,12.000,0.500,2.000,1.000,1.000,5.000,0
"05/05/08","19:12:19",849.000,"cc",28987.895,6,0.100,659.000,0.200,174.000,0.300,13.000,0.500,2.000,1.000,1.000,5.000,0
"05/05/08","19:12:25",845.000,"cc",29012.527,6,0.100,646.000,0.200,178.000,0.300,14.000,0.500,7.000,1.000,0,5.000,0
"05/05/08","19:12:31",832.000,"cc",28951.578,6,0.100,637.000,0.200,177.000,0.300,13.000,0.500,5.000,1.000,0,5.000,0
"05/05/08","19:12:37",825.000,"cc",28925.350,6,0.100,639.000,0.200,169.000,0.300,10.000,0.500,6.000,1.000,1.000,5.000,0
"05/05/08","19:12:43",810.000,"cc",28966.367,6,0.100,630.000,0.200,168.000,0.300,9.000,0.500,3.000,1.000,0,5.000,0
"05/05/08","19:12:49",797.000,"cc",29039.186,6,0.100,622.000,0.200,159.000,0.300,12.000,0.500,3.000,1.000,1.000,5.000,0
"05/05/08","19:12:55",790.000,"cc",28930.865,6,0.100,602.000,0.200,171.000,0.300,14.000,0.500,2.000,1.000,1.000,5.000,0
"05/05/08","19:13:01",819.000,"cc",28953.066,6,0.100,631.000,0.200,173.000,0.300,13.000,0.500,2.000,1.000,0,5.000,0
"05/05/08","19:13:07",820.000,"cc",28925.313,6,0.100,636.000,0.200,163.000,0.300,17.000,0.500,3.000,1.000,1.000,5.000,0
"05/05/08","19:13:13",767.000,"cc",28898.969,6,0.100,594.000,0.200,151.000,0.300,17.000,0.500,5.000,1.000,0,5.000,0
"05/05/08","19:13:19",796.000,"cc",28873.193,6,0.100,638.000,0.200,144.000,0.300,10.000,0.500,3.000,1.000,1.000,5.000,0
"05/05/08","19:13:25",809.000,"cc",28944.266,6,0.100,634.000,0.200,164.000,0.300,6.000,0.500,3.000,1.000,2.000,5.000,0
"05/05/08","19:13:31",804.000,"cc",28865.639,6,0.100,627.000,0.200,162.000,0.300,13.000,0.500,2.000,1.000,0,5.000,0
"05/05/08","19:13:37",793.000,"cc",28870.463,6,0.100,620.000,0.200,161.000,0.300,8.000,0.500,3.000,1.000,1.000,5.000,0
"05/05/08","19:13:43",815.000,"cc",28902.371,6,0.100,628.000,0.200,175.000,0.300,9.000,0.500,2.000,1.000,1.000,5.000,0
"05/05/08","19:13:49",777.000,"cc",28936.231,6,0.100,583.000,0.200,184.000,0.300,9.000,0.500,1.000,1.000,0,5.000,0
"05/05/08","19:13:55",829.000,"cc",28708.190,6,0.100,664.000,0.200,154.000,0.300,6.000,0.500,5.000,1.000,0,5.000,0
"05/05/08","19:14:01",737.000,"cc",28481.258,6,0.100,574.000,0.200,149.000,0.300,12.000,0.500,1.000,1.000,1.000,5.000,0
"05/05/08","19:14:07",762.000,"cc",28323.346,6,0.100,587.000,0.200,155.000,0.300,16.000,0.500,3.000,1.000,1.000,5.000,0
"05/05/08","19:14:13",759.000,"cc",28330.512,6,0.100,582.000,0.200,163.000,0.300,12.000,0.500,1.000,1.000,1.000,5.000,0
"05/05/08","19:14:19",789.000,"cc",28284.588,6,0.100,631.000,0.200,148.000,0.300,7.000,0.500,3.000,1.000,0,5.000,0
"05/05/08","19:14:25",811.000,"cc",28305.977,6,0.100,617.000,0.200,181.000,0.300,8.000,0.500,4.000,1.000,1.000,5.000,0
"05/05/08","19:14:31",775.000,"cc",28366.752,6,0.100,595.000,0.200,162.000,0.300,12.000,0.500,4.000,1.000,2.000,5.000,0
"05/05/08","19:14:37",795.000,"cc",28291.102,6,0.100,619.000,0.200,168.000,0.300,7.000,0.500,1.000,1.000,0,5.000,0
"05/05/08","19:14:43",790.000,"cc",28293.072,6,0.100,598.000,0.200,183.000,0.300,6.000,0.500,2.000,1.000,1.000,5.000,0
"05/05/08","19:14:49",797.000,"cc",28348.779,6,0.100,618.000,0.200,164.000,0.300,13.000,0.500,2.000,1.000,0,5.000,0
"05/05/08","19:14:55",812.000,"cc",28393.297,6,0.100,630.000,0.200,171.000,0.300,8.000,0.500,2.000,1.000,1.000,5.000,0
"05/05/08","19:15:01",758.000,"cc",28297.389,6,0.100,581.000,0.200,166.000,0.300,11.000,0.500,0,1.000,0,5.000,0
"05/05/08","19:15:07",764.000,"cc",28320.311,6,0.100,585.000,0.200,165.000,0.300,11.000,0.500,3.000,1.000,0,5.000,0
"05/05/08","19:15:13",782.000,"cc",28297.309,6,0.100,622.000,0.200,148.000,0.300,11.000,0.500,1.000,1.000,0,5.000,0
"05/05/08","19:15:19",848.000,"cc",28353.725,6,0.100,690.000,0.200,148.000,0.300,5.000,0.500,5.000,1.000,0,5.000,0
"05/05/08","19:15:25",793.000,"cc",28306.102,6,0.100,620.000,0.200,151.000,0.300,15.000,0.500,5.000,1.000,2.000,5.000,0
"05/05/08","19:15:31",767.000,"cc",28356.393,6,0.100,596.000,0.200,158.000,0.300,12.000,0.500,1.000,1.000,0,5.000,0
"05/05/08","19:15:37",841.000,"cc",28315.986,6,0.100,665.000,0.200,160.000,0.300,15.000,0.500,1.000,1.000,0,5.000,0
"05/05/08","19:15:43",941.000,"cc",28318.397,6,0.100,747.000,0.200,180.000,0.300,9.000,0.500,4.000,1.000,1.000,5.000,0
"05/05/08","19:15:49",936.000,"cc",28223.164,6,0.100,756.000,0.200,168.000,0.300,9.000,0.500,2.000,1.000,1.000,5.000,0
"05/05/08","19:15:55",1005.000,"cc",28283.699,6,0.100,791.000,0.200,196.000,0.300,16.000,0.500,1.000,1.000,1.000,5.000,0
"05/05/08","19:16:01",995.000,"cc",28276.822,6,0.100,795.000,0.200,187.000,0.300,11.000,0.500,1.000,1.000,1.000,5.000,0
"05/05/08","19:16:07",1008.000,"cc",28335.883,6,0.100,788.000,0.200,207.000,0.300,9.000,0.500,4.000,1.000,0,5.000,0
"05/05/08","19:16:13",989.000,"cc",28345.961,6,0.100,790.000,0.200,180.000,0.300,13.000,0.500,5.000,1.000,1.000,5.000,0
"05/05/08","19:16:19",998.000,"cc",28348.822,6,0.100,798.000,0.200,186.000,0.300,12.000,0.500,1.000,1.000,1.000,5.000,0
"05/05/08","19:16:25",1012.000,"cc",28408.043,6,0.100,798.000,0.200,202.000,0.300,11.000,0.500,1.000,1.000,0,5.000,0
"05/05/08","19:16:31",943.000,"cc",28308.481,6,0.100,751.000,0.200,179.000,0.300,12.000,0.500,0,1.000,1.000,5.000,0
"05/05/08","19:16:37",1004.000,"cc",28353.100,6,0.100,828.000,0.200,161.000,0.300,10.000,0.500,5.000,1.000,0,5.000,0
"05/05/08","19:16:43",991.000,"cc",28265.856,6,0.100,768.000,0.200,214.000,0.300,8.000,0.500,1.000,1.000,0,5.000,0
"05/05/08","19:16:49",935.000,"cc",28267.988,6,0.100,745.000,0.200,177.000,0.300,9.000,0.500,3.000,1.000,1.000,5.000,0
"05/05/08","19:16:55",944.000,"cc",28296.176,6,0.100,714.000,0.200,210.000,0.300,15.000,0.500,4.000,1.000,1.000,5.000,0
"05/05/08","19:17:01",989.000,"cc",28314.906,6,0.100,789.000,0.200,188.000,0.300,7.000,0.500,4.000,1.000,1.000,5.000,0
"05/05/08","19:17:07",984.000,"cc",28319.320,6,0.100,771.000,0.200,201.000,0.300,11.000,0.500,1.000,1.000,0,5.000,0
"05/05/08","19:17:13",996.000,"cc",28351.617,6,0.100,785.000,0.200,193.000,0.300,14.000,0.500,4.000,1.000,0,5.000,0
"05/05/08","19:17:19",866.000,"cc",28375.190,6,0.100,673.000,0.200,178.000,0.300,9.000,0.500,5.000,1.000,1.000,5.000,0
"05/05/08","19:17:25",805.000,"cc",28376.551,6,0.100,630.000,0.200,160.000,0.300,9.000,0.500,5.000,1.000,1.000,5.000,0
"05/05/08","19:17:31",846.000,"cc",28312.320,6,0.100,663.000,0.200,170.000,0.300,9.000,0.500,4.000,1.000,0,5.000,0
"05/05/08","19:17:37",833.000,"cc",28240.039,6,0.100,635.000,0.200,183.000,0.300,12.000,0.500,3.000,1.000,0,5.000,0
"05/05/08","19:17:43",899.000,"cc",28330.137,6,0.100,702.000,0.200,182.000,0.300,12.000,0.500,2.000,1.000,1.000,5.000,0
"05/05/08","19:17:49",850.000,"cc",28298.807,6,0.100,675.000,0.200,160.000,0.300,13.000,0.500,1.000,1.000,1.000,5.000,0
"05/05/08","19:17:55",884.000,"cc",28309.336,6,0.100,692.000,0.200,177.000,0.300,11.000,0.500,3.000,1.000,1.000,5.000,0
"05/05/08","19:18:01",943.000,"cc",28313.826,6,0.100,743.000,0.200,178.000,0.300,18.000,0.500,3.000,1.000,1.000,5.000,0
"05/05/08","19:18:07",916.000,"cc",28348.844,6,0.100,735.000,0.200,169.000,0.300,10.000,0.500,1.000,1.000,1.000,5.000,0
"05/05/08","19:18:13",965.000,"cc",28281.766,6,0.100,751.000,0.200,202.000,0.300,9.000,0.500,2.000,1.000,1.000,5.000,0
"05/05/08","19:18:19",1067.000,"cc",28339.766,6,0.100,867.000,0.200,196.000,0.300,3.000,0.500,1.000,1.000,0,5.000,0
"05/05/08","19:18:25",953.000,"cc",28294.490,6,0.100,751.000,0.200,181.000,0.300,17.000,0.500,4.000,1.000,0,5.000,0
"05/05/08","19:18:31",1095.000,"cc",28268.539,6,0.100,880.000,0.200,197.000,0.300,12.000,0.500,5.000,1.000,1.000,5.000,0
"05/05/08","19:18:37",1093.000,"cc",28300.293,6,0.100,900.000,0.200,180.000,0.300,11.000,0.500,2.000,1.000,0,5.000,0
"05/05/08","19:18:43",1059.000,"cc",28339.092,6,0.100,856.000,0.200,191.000,0.300,8.000,0.500,4.000,1.000,0,5.000,0
"05/05/08","19:18:49",1069.000,"cc",28288.305,6,0.100,838.000,0.200,215.000,0.300,12.000,0.500,4.000,1.000,0,5.000,0
"05/05/08","19:18:55",1099.000,"cc",28322.178,6,0.100,859.000,0.200,226.000,0.300,10.000,0.500,4.000,1.000,0,5.000,0
"05/05/08","19:19:01",1067.000,"cc",28403.916,6,0.100,855.000,0.200,194.000,0.300,16.000,0.500,2.000,1.000,0,5.000,0
"05/05/08","19:19:07",1072.000,"cc",28195.537,6,0.100,848.000,0.200,208.000,0.300,10.000,0.500,4.000,1.000,2.000,5.000,0
"05/05/08","19:19:13",1151.000,"cc",28379.246,6,0.100,943.000,0.200,190.000,0.300,14.000,0.500,2.000,1.000,2.000,5.000,0
"05/05/08","19:19:19",1330.000,"cc",28369.223,6,0.100,1111.000,0.200,205.000,0.300,11.000,0.500,2.000,1.000,1.000,5.000,0
"05/05/08","19:19:25",1347.000,"cc",28291.895,6,0.100,1096.000,0.200,240.000,0.300,8.000,0.500,3.000,1.000,0,5.000,0
"05/05/08","19:19:31",1423.000,"cc",28283.822,6,0.100,1195.000,0.200,211.000,0.300,14.000,0.500,2.000,1.000,1.000,5.000,0
"05/05/08","19:19:37",1449.000,"cc",28345.982,6,0.100,1234.000,0.200,198.000,0.300,17.000,0.500,0,1.000,0,5.000,0
"05/05/08","19:19:43",1475.000,"cc",28284.127,6,0.100,1234.000,0.200,229.000,0.300,10.000,0.500,2.000,1.000,0,5.000,0
"05/05/08","19:19:49",1534.000,"cc",28313.121,6,0.100,1300.000,0.200,215.000,0.300,14.000,0.500,5.000,1.000,0,5.000,0
"05/05/08","19:19:55",1384.000,"cc",28355.156,6,0.100,1149.000,0.200,213.000,0.300,20.000,0.500,2.000,1.000,0,5.000,0